Location: Unspecified
(51.0950°N, 12.9690°E)
Time: 14:12:34
(UTC+00:00)

SL-08 R/B - Pass Details

Date: 28 October 2021
Orbit: 943 x 1008 km, 82.9° (Epoch: 26 November)

Event Time Altitude Azimuth Distance (km) Brightness Sun altitude
Rises 18:46:00 0° 186° (S) 3,713 7.5 -28.2°
Reaches altitude 10° 18:48:30 10° 185° (S) 2,772 6.8 -28.5°
Enters shadow 18:49:52 18° 185° (S) 2,274 6.3 -28.7°
Exits shadow 18:54:25 77° 170° (S) 1,038 4.4 -29.4°
Maximum altitude 18:54:55 86° 98° (E) 1,018 4.4 -29.5°
Drops below altitude 10° 19:01:22 10° 11° (N) 2,798 6.9 -30.5°
Sets 19:03:55 0° 11° (N) 3,749 7.6 -30.9°
